Location: La Brionne
(46.1728°N, 1.7849°E)
Time: 00:30:44
(UTC+00:00)

BREEZE-M DEB (TANK) - Visible Passes

Search period start: 24 October 2021 00:00
Search period end: 03 November 2021 00:00
Orbit: 312 x 14764 km, 49.6° (Epoch: 22 October)

Date Brightness Start Highest point End Pass type
(mag) Time Alt. Az. Time Alt. Az. Time Alt. Az.
24 Oct 8.3 01:02:42 10° S 01:52:52 30° SE 02:07:51 10° E visible
24 Oct 8.6 23:55:44 10° SSE 00:26:51 17° ESE 00:41:42 10° E visible
25 Oct 6.1 04:41:24 10° SW 05:22:33 75° SSE 05:29:58 10° ENE visible
26 Oct 7.0 03:04:54 10° SSW 03:58:50 57° SE 04:08:52 10° ENE visible
27 Oct 7.8 01:35:11 10° S 02:33:46 41° SE 02:47:08 10° ENE visible
28 Oct 8.3 00:16:27 10° SSE 01:07:39 28° SE 01:23:58 10° E visible
28 Oct 5.6 05:28:59 10° WSW 06:01:25 89° NNW 06:07:38 10° ENE visible
28 Oct 8.6 23:14:20 10° SE 23:41:34 15° ESE 23:56:07 10° E visible
29 Oct 6.4 03:49:51 10° SW 04:38:15 72° SSE 04:46:38 10° ENE visible
30 Oct 7.2 02:13:41 10° SSW 03:13:57 54° SE 03:25:17 10° ENE visible
31 Oct 8.0 00:46:03 10° S 01:48:17 39° SE 02:03:11 10° ENE visible
31 Oct 8.3 23:30:40 10° SSE 00:21:48 26° SE 00:39:22 10° E visible
01 Nov 5.8 04:37:26 10° WSW 05:16:54 87° SSE 05:23:56 10° ENE visible
01 Nov 8.7 22:34:42 10° SE 22:55:48 13° ESE 23:08:50 10° E visible
02 Nov 6.6 02:57:07 10° SW 03:53:13 69° SSE 04:02:44 10° ENE visible
